Wind_Speed
12 12 10 7 6 8 10 14 10 9 6 9 7 8 19 23 24 24 26 29 25 13 21 18 22 27 29 29 32 37 34 31 29 28 23 20 22 31 41 42 36 33 31 32
14 12 10 10 12 15 15 15 15 15 13 9 6 14 22 25 23 22 22 24 20 17 16 21 22 25 26 25 25 28 33 34 29 26 30 33 32 38 39 43 49 38 37 39
16 16 15 14 19 18 16 14 21 19 16 16 16 20 23 25 30 29 25 26 25 16 21 23 28 28 27 30 32 32 33 34 35 34 31 35 36 32 40 42 41 38 38 41
18 19 19 18 17 17 17 15 17 23 22 27 25 28 27 24 27 29 27 24 25 19 18 22 25 26 27 32 34 34 36 38 39 40 40 39 42 40 38 40 40 40 42 45
18 19 15 15 18 19 20 22 23 24 26 30 24 32 31 28 33 32 32 30 30 29 27 28 31 37 41 37 40 40 40 41 41 42 43 43 43 44 44 44 46 46 45 48
20 20 22 21 23 22 23 23 23 23 25 27 23 33 38 33 31 31 30 31 30 29 31 34 38 42 44 45 45 47 46 44 45 45 45 46 47 47 48 48 48 50 50 49
20 21 22 22 22 23 25 22 24 24 26 24 26 37 37 35 33 33 32 26 25 29 33 39 43 47 50 52 51 48 45 44 45 46 47 47 48 48 49 50 50 51 54 55
20 21 21 20 19 17 18 22 25 26 24 23 26 35 36 36 35 33 31 30 32 37 41 44 47 52 55 56 55 53 52 53 50 46 45 45 46 47 47 48 49 50 51 54
18 18 22 23 20 22 20 23 26 28 24 23 24 31 35 35 36 37 37 36 41 45 48 50 54 58 59 58 58 56 54 50 47 45 44 44 45 46 47 48 48 50 51 53
16 19 23 24 26 24 24 24 25 27 29 28 24 30 32 35 38 39 42 46 49 52 52 53 56 58 58 57 55 51 46 44 44 42 42 43 43 43 45 47 49 51 52 54
16 19 19 23 29 27 27 26 23 26 30 30 29 30 31 33 35 36 39 42 44 45 44 44 46 44 38 41 45 44 41 40 40 41 42 42 42 43 43 45 47 48 49 52
19 22 21 22 30 32 32 29 27 28 29 31 31 28 28 30 37 40 41 42 43 43 41 37 32 33 40 38 43 42 39 38 38 40 41 41 41 41 41 43 43 44 46 47
22 25 24 23 29 32 34 32 31 30 30 27 31 28 31 31 34 38 41 41 41 41 37 34 28 29 36 36 38 41 41 41 41 41 40 39 38 37 36 40 42 42 44 44
28 29 30 28 30 33 34 31 31 32 32 31 32 31 29 31 35 38 41 38 37 37 37 37 35 34 37 34 35 37 40 42 41 41 36 29 26 34 37 37 38 40 43 45
28 30 32 31 29 33 33 31 30 30 31 34 33 31 34 32 31 34 40 40 37 37 36 36 37 38 39 38 36 36 39 36 31 29 26 34 41 41 39 42 44 44 43 44
32 31 31 32 32 32 31 33 31 31 32 32 30 32 36 35 36 37 39 40 38 35 35 36 38 39 40 40 36 34 33 33 28 39 44 35 40 41 41 41 45 45 46 46
33 31 30 27 30 30 29 30 29 31 33 32 31 32 35 36 37 38 38 36 36 35 36 37 38 39 39 39 38 37 42 45 45 45 44 45 44 44 42 41 41 41 44 46
36 28 28 24 25 24 30 29 29 29 31 29 30 32 36 36 37 38 38 38 39 39 37 37 37 38 40 41 40 43 42 47 50 50 52 50 50 50 50 46 46 46 45 45
32 27 27 26 26 25 27 29 28 28 30 32 32 32 34 37 37 39 39 38 38 39 41 40 41 43 43 42 42 43 46 49 51 54 54 54 52 52 53 54 53 50 48 48
31 29 27 28 29 27 25 29 29 27 32 31 34 34 35 36 36 38 41 43 44 45 45 44 46 47 47 48 47 44 46 53 54 53 50 52 53 51 52 52 51 53 54 53
28 28 27 28 30 29 26 29 31 33 33 35 34 35 36 37 37 39 42 46 46 45 44 46 48 49 49 50 50 46 45 53 52 50 50 47 52 57 58 55 54 51 50 50
29 28 26 28 28 29 29 31 33 35 35 35 35 36 37 39 41 42 44 44 45 46 49 52 53 55 52 49 48 45 46 56 55 56 53 51 51 49 50 47 46 47 48 50
26 26 27 27 27 32 32 31 31 34 34 37 39 41 41 43 44 44 45 46 48 50 49 52 54 52 51 48 46 46 48 46 50 44 43 43 39 44 46 42 44 46 48 45
27 29 30 30 30 31 32 33 33 35 37 37 38 40 40 42 45 45 47 49 51 52 51 48 45 43 37 38 39 44 41 40 38 35 36 37 40 43 45 45 43 44 45 44
26 31 33 35 35 34 33 35 39 39 39 39 40 39 40 45 47 48 49 49 46 41 36 36 34 35 39 42 41 40 33 31 36 41 43 44 44 42 41 41 41 41 41 40
29 35 33 32 31 32 34 37 40 42 42 43 44 43 43 45 45 46 42 38 33 33 33 34 33 30 32 34 34 34 36 40 42 42 40 41 41 38 36 35 36 34 32 31
Wind_Direction
208 216 209 234 227 212 226 216 241 257 242 178 167 196 246 261 265 263 263 271 294 307 301 285 279 276 273 268 277 287 287 285 286 289 286 244 266 273 275 274 262 256 254 257
231 237 223 222 210 210 221 199 225 247 260 264 251 252 238 265 269 269 275 283 285 283 277 282 278 282 290 290 285 283 288 292 288 280 274 269 259 267 269 267 264 266 269 272
244 245 243 245 231 223 239 229 222 244 268 293 285 270 277 263 272 274 275 278 285 278 288 283 277 274 280 289 290 290 288 288 289 286 280 279 279 270 269 269 274 277 273 268
249 254 251 256 253 251 251 244 250 253 264 260 271 267 252 267 268 271 276 274 281 283 272 286 294 287 286 293 290 285 283 283 285 285 283 280 280 279 272 274 274 270 272 271
261 264 263 256 250 246 246 243 240 241 245 254 259 264 264 254 264 267 269 271 278 281 280 284 287 289 293 290 287 285 285 284 282 281 281 281 279 279 279 276 277 275 273 275
255 255 258 259 260 259 261 262 260 255 255 257 248 256 264 263 267 267 268 269 273 277 281 282 281 281 285 288 290 290 285 283 281 280 280 280 279 279 279 278 277 278 277 275
261 264 267 270 275 275 268 263 262 261 261 262 250 251 267 272 273 271 271 274 269 269 269 271 275 280 286 290 293 293 290 288 283 280 280 279 278 277 277 277 278 279 280 281
266 272 269 266 267 264 275 272 270 266 259 259 257 258 262 266 269 273 273 270 271 272 273 273 275 280 287 293 295 294 290 290 287 282 280 279 278 277 275 275 274 274 274 276
269 270 276 276 274 275 277 275 274 275 274 267 258 263 274 275 274 275 273 266 266 272 275 280 283 285 288 290 289 288 288 289 287 284 282 280 279 279 279 279 277 277 277 277
275 267 270 280 280 275 275 271 274 280 281 276 271 268 266 267 270 273 275 277 278 279 279 281 283 286 290 290 289 289 287 285 283 282 281 280 279 278 278 279 279 280 282 283
262 260 265 273 279 280 274 277 276 274 276 277 276 274 280 280 279 277 276 278 279 279 283 283 287 293 289 289 287 286 284 283 282 282 282 281 281 279 278 278 280 282 284 285
265 267 268 269 270 275 280 279 278 275 275 276 280 278 276 279 280 285 289 290 292 297 301 305 310 304 301 290 283 285 286 285 286 285 284 282 281 280 280 280 282 284 287 289
273 273 275 268 271 273 276 280 282 282 279 279 279 285 283 282 283 285 286 291 296 301 306 308 312 305 295 286 283 283 282 280 279 280 281 283 285 286 285 285 288 287 289 288
278 281 279 277 272 271 272 275 276 276 279 282 279 279 276 278 283 284 285 292 298 301 304 306 303 291 285 291 287 286 280 279 278 278 278 272 278 297 294 292 290 290 293 291
278 276 276 274 268 268 270 272 271 276 278 278 282 290 288 287 279 280 288 295 298 299 299 296 294 292 292 294 291 293 278 270 276 281 277 279 279 297 291 291 289 289 287 283
268 269 270 269 268 265 270 272 273 272 273 279 286 283 287 289 290 289 290 293 298 299 296 294 293 292 291 291 289 289 273 276 273 287 289 288 285 286 289 291 289 287 284 283
275 272 267 263 259 263 266 266 271 274 279 284 286 285 283 286 288 290 292 293 293 290 290 289 291 291 293 294 292 281 280 281 279 286 287 287 285 287 285 284 284 282 282 282
280 274 264 260 256 258 264 270 268 273 281 284 282 281 285 290 292 293 291 290 290 292 291 289 286 285 287 288 287 287 284 284 286 289 290 289 289 288 286 282 286 284 284 282
278 274 272 269 266 269 270 272 278 281 281 282 285 284 285 291 292 291 293 292 290 287 287 287 284 286 285 286 287 285 282 287 286 287 288 287 285 288 288 292 295 290 287 285
269 270 273 279 279 279 275 279 282 278 279 285 286 293 297 301 300 298 293 291 289 289 290 289 288 288 289 291 291 286 282 283 285 285 283 283 285 287 288 292 288 287 290 287
262 270 273 271 273 275 281 282 281 283 290 292 297 298 298 298 295 288 286 289 292 292 290 290 290 290 290 289 290 285 287 285 285 283 280 286 295 299 297 297 293 292 292 290
263 267 272 273 279 283 282 285 289 292 294 296 295 294 293 292 288 288 289 289 292 294 294 294 294 293 294 292 286 280 276 275 280 287 294 301 298 296 291 291 291 290 288 289
267 271 272 277 280 281 288 292 294 290 292 294 296 298 298 299 299 296 296 297 297 296 294 292 292 292 289 287 284 276 286 279 294 300 298 297 296 296 289 288 288 289 289 286
277 276 280 279 279 287 293 293 292 292 294 296 298 298 297 294 292 294 296 297 298 300 298 297 297 297 297 291 280 296 298 292 294 296 295 298 298 292 290 288 287 286 287 285
273 275 277 281 290 295 296 295 296 297 297 296 296 296 295 294 298 300 300 302 303 302 303 305 304 301 295 294 293 296 296 296 297 296 298 298 295 294 293 291 290 288 287 285
273 275 280 281 285 289 292 293 294 295 297 297 297 297 297 299 299 301 304 305 305 308 304 302 302 301 303 304 303 301 298 298 298 297 297 295 296 297 298 296 294 291 289 289
Height
5882 5883 5884 5885 5887 5887 5889 5888 5887 5887 5888 5890 5893 5894 5891 5891 5892 5893 5893 5890 5889 5891 5887 5886 5886 5885 5885 5886 5884 5880 5883 5885 5886 5885 5885 5885 5884 5883 5880 5878 5878 5878 5876 5875
5881 5882 5883 5883 5884 5884 5883 5884 5883 5884 5886 5889 5891 5890 5890 5887 5889 5890 5892 5891 5893 5892 5890 5888 5885 5882 5879 5880 5881 5880 5877 5875 5878 5879 5876 5875 5878 5873 5873 5870 5866 5865 5865 5866
5878 5879 5880 5881 5880 5881 5882 5883 5882 5882 5883 5883 5885 5887 5885 5885 5883 5885 5888 5887 5886 5887 5885 5883 5882 5880 5878 5875 5873 5873 5870 5868 5868 5869 5870 5865 5864 5867 5863 5861 5857 5853 5851 5852
5875 5875 5876 5876 5878 5879 5879 5882 5882 5881 5881 5880 5881 5880 5880 5880 5880 5881 5883 5883 5881 5882 5879 5877 5875 5873 5872 5871 5869 5868 5865 5860 5858 5857 5858 5857 5855 5855 5855 5851 5849 5849 5848 5844
5871 5870 5871 5872 5872 5873 5873 5873 5875 5876 5876 5874 5879 5872 5868 5874 5872 5875 5877 5878 5875 5873 5872 5871 5869 5866 5864 5863 5860 5858 5858 5855 5851 5848 5846 5845 5844 5842 5841 5841 5840 5840 5840 5835
5864 5865 5864 5866 5866 5867 5868 5868 5869 5870 5869 5870 5869 5862 5860 5865 5868 5868 5868 5869 5869 5867 5864 5862 5861 5859 5857 5854 5851 5848 5845 5844 5842 5839 5837 5835 5832 5831 5828 5827 5828 5826 5825 5825
5859 5860 5860 5861 5861 5861 5861 5861 5861 5863 5862 5864 5861 5856 5855 5856 5860 5859 5860 5861 5861 5858 5856 5854 5852 5849 5846 5843 5841 5838 5833 5831 5830 5828 5826 5824 5822 5821 5819 5816 5814 5812 5810 5808
5855 5855 5856 5856 5857 5856 5855 5855 5855 5854 5856 5856 5854 5849 5850 5849 5850 5849 5849 5850 5850 5848 5846 5843 5842 5840 5836 5833 5829 5826 5823 5819 5817 5815 5814 5812 5809 5807 5806 5805 5803 5801 5799 5797
5851 5850 5848 5848 5850 5850 5850 5848 5847 5846 5848 5847 5847 5843 5841 5842 5842 5842 5841 5839 5838 5836 5835 5834 5831 5828 5826 5822 5817 5813 5810 5807 5805 5803 5801 5800 5797 5794 5791 5789 5788 5787 5785 5783
5846 5845 5842 5842 5842 5843 5842 5842 5841 5839 5838 5838 5839 5835 5835 5835 5835 5834 5832 5829 5828 5826 5827 5827 5824 5819 5814 5808 5803 5799 5798 5795 5793 5791 5789 5788 5786 5784 5780 5776 5773 5771 5770 5767
5839 5839 5840 5837 5833 5833 5834 5833 5835 5833 5831 5829 5829 5828 5827 5825 5824 5824 5823 5821 5819 5817 5817 5817 5814 5810 5802 5795 5789 5788 5787 5785 5783 5781 5778 5776 5774 5772 5769 5766 5763 5760 5757 5754
5832 5832 5834 5833 5827 5825 5825 5825 5826 5824 5825 5822 5819 5822 5820 5818 5813 5811 5810 5808 5806 5803 5803 5803 5801 5798 5792 5786 5782 5779 5777 5776 5774 5771 5769 5767 5764 5761 5758 5755 5752 5748 5745 5743
5825 5824 5825 5827 5822 5819 5817 5817 5816 5815 5814 5815 5811 5813 5809 5809 5807 5804 5801 5797 5795 5794 5792 5790 5789 5785 5780 5777 5773 5770 5766 5764 5763 5761 5760 5758 5755 5753 5750 5746 5741 5737 5734 5731
5817 5817 5816 5817 5814 5810 5809 5810 5809 5806 5805 5804 5802 5802 5803 5800 5796 5794 5789 5789 5788 5786 5783 5780 5778 5775 5770 5768 5764 5760 5755 5752 5751 5750 5748 5747 5746 5744 5741 5737 5733 5729 5725 5721
5811 5809 5807 5806 5806 5801 5800 5800 5801 5799 5798 5794 5793 5792 5788 5788 5787 5785 5781 5779 5779 5776 5773 5769 5765 5762 5759 5756 5753 5750 5745 5742 5741 5740 5740 5739 5735 5733 5730 5725 5722 5719 5716 5714
5801 5801 5799 5797 5796 5795 5794 5790 5789 5788 5787 5786 5785 5783 5779 5779 5777 5776 5773 5771 5769 5767 5763 5760 5756 5752 5748 5745 5742 5739 5736 5735 5732 5730 5728 5728 5726 5722 5719 5714 5710 5708 5706 5702
5792 5791 5789 5789 5787 5787 5787 5783 5783 5781 5778 5779 5778 5776 5774 5772 5770 5767 5764 5762 5760 5757 5754 5749 5746 5741 5736 5734 5731 5727 5724 5720 5720 5718 5717 5714 5712 5710 5709 5705 5701 5696 5692 5689
5779 5781 5779 5781 5780 5781 5777 5777 5776 5775 5773 5772 5770 5768 5765 5763 5760 5757 5755 5752 5749 5745 5742 5739 5736 5732 5728 5724 5721 5716 5712 5709 5706 5702 5698 5697 5696 5693 5690 5688 5686 5684 5681 5678
5771 5771 5771 5772 5773 5775 5771 5769 5770 5768 5766 5765 5763 5759 5757 5755 5752 5749 5746 5742 5739 5735 5731 5728 5724 5720 5716 5713 5710 5706 5702 5699 5694 5689 5687 5684 5680 5677 5674 5674 5672 5668 5665 5663
5764 5764 5765 5764 5764 5764 5765 5763 5762 5761 5758 5756 5753 5751 5747 5744 5741 5738 5734 5730 5727 5722 5718 5715 5710 5706 5703 5699 5696 5692 5688 5683 5680 5677 5673 5669 5667 5666 5663 5659 5657 5653 5650 5647
5758 5757 5758 5757 5756 5757 5756 5754 5753 5751 5752 5747 5746 5743 5740 5737 5733 5728 5722 5718 5715 5711 5707 5703 5699 5695 5692 5687 5682 5678 5674 5668 5666 5662 5659 5655 5651 5648 5646 5644 5641 5638 5635 5631
5751 5750 5751 5750 5749 5748 5747 5746 5746 5743 5740 5738 5735 5732 5729 5726 5720 5716 5712 5707 5703 5699 5694 5689 5685 5680 5677 5672 5670 5665 5659 5656 5653 5650 5645 5641 5636 5634 5632 5629 5626 5621 5619 5616
5744 5744 5742 5744 5742 5739 5738 5739 5738 5734 5731 5727 5724 5721 5716 5711 5706 5702 5698 5694 5690 5686 5681 5675 5670 5666 5662 5658 5654 5651 5647 5644 5641 5636 5632 5627 5622 5619 5616 5613 5609 5606 5603 5599
5735 5733 5733 5733 5733 5733 5731 5729 5727 5724 5721 5718 5715 5710 5706 5701 5696 5693 5688 5682 5677 5671 5665 5659 5654 5650 5647 5646 5643 5639 5636 5632 5628 5625 5621 5615 5612 5609 5605 5600 5596 5593 5589 5585
5729 5726 5724 5723 5723 5722 5721 5719 5716 5713 5711 5708 5704 5700 5694 5688 5684 5680 5674 5669 5663 5657 5653 5649 5645 5642 5639 5636 5632 5628 5624 5621 5617 5613 5608 5605 5600 5596 5591 5586 5582 5579 5576 5573
5719 5717 5718 5717 5718 5716 5714 5710 5707 5702 5700 5695 5692 5687 5683 5678 5673 5667 5663 5658 5653 5650 5646 5641 5637 5633 5629 5625 5621 5618 5614 5610 5606 5601 5597 5593 5588 5583 5579 5574 5570 5567 5565 5562